SQ5SUI-3 Weather Reports


time (UTC)temp
F
wind
direction
speed
knots
gust
knots
rain 1hr
in
rain 24hr
in
rain mn
in
humidity
%
barometer
mb
20260905222121 55 88 2.6 7.0 0.00 0.07 0.00 84 1010.1
20260905215121 56 228 2.6 6.1 0.00 0.07 0.07 82 1010.0
20260905212121 56 327 2.6 7.8 0.00 0.07 0.07 82 1010.5
20260905205122 56 187 3.5 7.0 0.00 0.09 0.07 81 1010.7
20260905202121 57 212 2.6 7.8 0.00 0.10 0.07 80 1010.9
20260905195122 57 314 2.6 7.0 0.00 0.10 0.07 83 1011.0
20260905192122 57 270 1.7 7.0 0.01 0.10 0.07 85 1011.1
20260905185121 56 270 1.7 5.2 0.02 0.10 0.07 91 1011.3
20260905182122 56 228 2.6 4.3 0.02 0.09 0.05 87 1011.1
20260905175121 56 268 0.9 2.6 0.01 0.08 0.04 84 1011.0
20260905172121 56 227 0.0 1.7 0.00 0.07 0.03 81 1011.9
20260905165122 58 245 0.0 2.6 0.00 0.07 0.03 72 1012.2
20260905162122 61 270 4.3 10.4 0.00 0.07 0.03 61 1012.5
20260905155121 69 202 5.2 10.4 0.00 0.07 0.03 43 1013.1
20260905152122 69 268 2.6 8.7 0.00 0.07 0.03 42 1013.9
20260905145122 69 202 5.2 11.3 0.00 0.07 0.03 40 1014.0
20260905142121 71 232 4.3 15.6 0.00 0.07 0.03 35 1013.8
20260905135122 72 240 3.5 18.2 0.00 0.07 0.03 34 1014.1
20260905132123 70 268 5.2 21.7 0.00 0.07 0.03 39 1013.9
20260905125122 71 225 5.2 16.5 0.00 0.07 0.03 42 1014.3
20260905122121 71 263 2.6 19.1 0.00 0.07 0.03 39 1014.1
20260905115123 69 186 4.3 14.8 0.00 0.07 0.03 46 1013.6
20260905112122 71 233 3.5 13.0 0.00 0.07 0.03 48 1013.7
20260905105121 69 247 3.5 15.6 0.00 0.07 0.03 47 1014.0
20260905102121 69 196 5.2 9.6 0.00 0.07 0.03 51 1014.2
20260905095122 71 276 5.2 13.9 0.00 0.07 0.03 51 1014.2
20260905092122 69 193 3.5 10.4 0.00 0.07 0.03 56 1014.3
20260905085122 66 226 2.6 15.6 0.00 0.07 0.03 61 1014.4
20260905082121 67 223 4.3 13.0 0.00 0.07 0.03 62 1014.6
20260905075121 65 271 3.5 13.0 0.00 0.07 0.03 66 1014.4
20260905072121 62 203 2.6 9.6 0.00 0.07 0.03 72 1014.6
20260905065122 62 181 5.2 7.8 0.00 0.07 0.03 77 1015.1
20260905062122 62 239 1.7 10.4 0.00 0.07 0.03 79 1015.4
20260905055121 61 181 2.6 7.8 0.00 0.07 0.03 80 1015.5
20260905052123 61 274 2.6 8.7 0.00 0.07 0.03 82 1015.8
20260905045122 60 317 1.7 7.0 0.00 0.07 0.03 85 1016.4
20260905042121 60 253 2.6 6.1 0.00 0.07 0.03 87 1016.9
20260905035122 60 115 2.6 7.8 0.00 0.07 0.03 89 1017.7
20260905032122 60 94 4.3 7.8 0.00 0.07 0.03 91 1017.7
20260905025123 60 135 1.7 7.0 0.01 0.07 0.03 93 1017.8
20260905022122 60 135 2.6 7.8 0.01 0.07 0.03 92 1018.1
20260905015122 60 132 2.6 7.0 0.00 0.05 0.02 90 1018.5
20260905012122 61 181 7.8 15.6 0.00 0.05 0.02 85 1018.4
20260905005122 61 185 3.5 9.6 0.02 0.05 0.02 85 1018.7
20260905002122 62 184 5.2 10.4 0.02 0.05 0.02 88 1019.2
20260904235121 64 223 1.7 5.2 0.00 0.03 0.00 90 1019.7
20260904232122 63 178 2.6 7.8 0.00 0.03 0.00 90 1020.6
20260904225123 63 181 1.7 4.3 0.00 0.03 0.00 91 1020.6